{"data":{"norad_id":55588,"intl_designator":"2023-020V","name":"STARLINK-5728","alt_names":[],"object_type":"PAYLOAD","status":"ACTIVE","operator":null,"country":"US","launch_date":"2023-02-12","launch_site_code":"AFETR","launch_vehicle":null,"mission":null,"orbit_class":"UNKNOWN","rcs_meters":null,"size_class":null,"mass_kg":null,"dimensions":null,"purposes":["comms"],"wikipedia_slug":null,"has_3d_model":false,"image_url":null,"decayed_at":null,"tle_current":{"epoch":"2026-09-20T22:50:17.135808Z","epoch_age_seconds":61367,"freshness":"FRESH","line1":"1 55588U 23020V   26263.95158722  .00000382  00000+0  23428-4 0  9991","line2":"2 55588  43.0051 342.6367 0001892 282.0294  78.0345 15.27576992198776","mean_motion":15.27576992,"eccentricity":0.0001892,"inclination_deg":43.0051,"raan_deg":342.6367,"arg_perigee_deg":282.0294,"mean_anomaly_deg":78.0345,"bstar":2.3428e-5,"rev_number":19877,"period_min":94.266934337278,"perigee_km":481.75996497505,"apogee_km":484.35624120206,"semimajor_km":6861.1951030886,"source":"CELESTRAK","updated_at":"2026-09-21T09:00:33.267638Z"}}}